Charleston, SC

5:55 AM EDT on September 24, 2017 (GMT -0400)
Charleston Air Force Base-International

Weather History for KCHS - January, 2012

Change the Weather History Date:

Monday, January 16, 2012

  Actual Average Record
Temperature  
Mean Temperature 45 °F 48 °F  
Max Temperature 58 °F 59 °F 83 °F (1950)
Min Temperature 31 °F 37 °F 18 °F (1972)
Degree Days  
Heating Degree Days 20 17  
Month to date heating degree days 224 272  
Since 1 July heating degree days 822 1010  
Cooling Degree Days 0 0  
Month to date cooling degree days 0 0  
Year to date cooling degree days 0 0  
Moisture  
Dew Point 34 °F    
Average Humidity 66    
Maximum Humidity 92    
Minimum Humidity 40    
Precipitation  
Precipitation 0.00 in 0.13 in 2.26 in (1946)
Month to date precipitation 0.10 1.90  
Year to date precipitation 0.10 1.90  
Snow  
Snow 0.00 in 0.00 in - ()
Month to date snowfall 0.0  
Since 1 July snowfall 0.0 0.3  
Snow Depth 0.00 in    
Sea Level Pressure  
Sea Level Pressure 30.50 in    
Wind  
Wind Speed 5 mph (ESE)    
Max Wind Speed 15 mph    
Max Gust Speed 20 mph    
Visibility 10 miles    
Events      
T = Trace of Precipitation, MM = Missing Value Source: NWS Daily Summary

Daily Weather History Graph

Daily Weather History Graph

Search for Another Location

Airport or City:

Trip Planner

Search our weather history database for the weather conditions in past years. The results will help you decide how hot, cold, wet, or windy it might be!

Date:

Astronomy

Jan. 16, 2012 Rise Set
Actual Time 7:22 AM EST 5:37 PM EST
Civil Twilight 6:56 AM EST 6:03 PM EST
Nautical Twilight 6:25 AM EST 6:34 PM EST
Astronomical Twilight 5:56 AM EST 7:03 PM EST
Moon 12:36 AM EST (1/16) 11:45 AM EST (1/16)
Length of Visible Light 11h 07m
Length of Day
10h 14m
Waning Gibbous, 46% of the Moon is Illuminated
Jan 16
Waning Gibbous
Jan 23
New
Jan 30
First Quarter
Feb 7
Full
Feb 14
Last Quarter

Hourly Weather History & Observations

Time (EST) Temp. Windchill Dew Point Humidity Pressure Visibility Wind Dir Wind Speed Gust Speed Precip Events Conditions
12:56 AM 35.1 °F 31.0 °F 27.0 °F 72% 30.53 in 10.0 mi ENE 4.6 mph - N/A   Partly Cloudy
1:56 AM 32.0 °F 26.4 °F 26.1 °F 79% 30.53 in 10.0 mi ENE 5.8 mph - N/A   Partly Cloudy
2:56 AM 34.0 °F - 28.0 °F 79% 30.52 in 10.0 mi Calm Calm - N/A   Clear
3:56 AM 36.0 °F - 30.0 °F 79% 30.53 in 10.0 mi Calm Calm - N/A   Clear
4:56 AM 34.0 °F - 30.0 °F 85% 30.53 in 10.0 mi Calm Calm - N/A   Clear
5:56 AM 36.0 °F - 32.0 °F 86% 30.53 in 10.0 mi Calm Calm - N/A   Mostly Cloudy
6:56 AM 30.9 °F 27.5 °F 28.9 °F 92% 30.55 in 10.0 mi North 3.5 mph - N/A   Scattered Clouds
7:56 AM 33.1 °F 30.0 °F 30.0 °F 89% 30.58 in 10.0 mi North 3.5 mph - N/A   Mostly Cloudy
8:56 AM 44.1 °F - 37.0 °F 76% 30.59 in 10.0 mi Calm Calm - N/A   Mostly Cloudy
9:56 AM 50.0 °F - 35.1 °F 57% 30.58 in 10.0 mi East 8.1 mph - N/A   Mostly Cloudy
10:56 AM 54.0 °F - 33.1 °F 45% 30.58 in 10.0 mi SE 12.7 mph - N/A   Mostly Cloudy
11:56 AM 55.0 °F - 34.0 °F 45% 30.56 in 10.0 mi SSE 12.7 mph - N/A   Mostly Cloudy
12:56 PM 57.9 °F - 34.0 °F 41% 30.53 in 10.0 mi SSE 13.8 mph - N/A   Mostly Cloudy
1:56 PM 57.9 °F - 34.0 °F 41% 30.49 in 10.0 mi SE 11.5 mph - N/A   Mostly Cloudy
2:56 PM 55.9 °F - 35.1 °F 45% 30.48 in 10.0 mi SSE 8.1 mph - N/A   Mostly Cloudy
3:56 PM 55.0 °F - 35.1 °F 47% 30.47 in 10.0 mi ESE 8.1 mph - N/A   Overcast
4:56 PM 54.0 °F - 36.0 °F 51% 30.46 in 10.0 mi East 5.8 mph - N/A   Mostly Cloudy
5:56 PM 52.0 °F - 37.0 °F 57% 30.46 in 10.0 mi ESE 5.8 mph - N/A   Mostly Cloudy
6:56 PM 50.0 °F - 39.0 °F 66% 30.44 in 10.0 mi East 5.8 mph - N/A   Scattered Clouds
7:56 PM 48.9 °F - 39.0 °F 69% 30.45 in 10.0 mi East 3.5 mph - N/A   Mostly Cloudy
8:56 PM 50.0 °F - 39.9 °F 68% 30.43 in 6.0 mi ESE 3.5 mph - N/A   Smoke
9:56 PM 48.9 °F - 41.0 °F 74% 30.42 in 10.0 mi Calm Calm - N/A   Mostly Cloudy
10:56 PM 48.9 °F - 42.1 °F 77% 30.40 in 10.0 mi Calm Calm - N/A   Mostly Cloudy
11:56 PM 46.0 °F 42.5 °F 41.0 °F 83% 30.39 in 10.0 mi NNW 6.9 mph - N/A   Mostly Cloudy